Location: Zihuatanejo
(17.6330°N, 101.5500°W)
Time: 00:51:57
(UTC-05:00)

Tiangong 2 - Pass Details

Date: 27 March 2019
Orbit: 378 x 390 km, 42.8° (Epoch: 23 April)

Event Time Altitude Azimuth Distance (km) Brightness Sun altitude
Exits shadow 05:49:09 16° 90° (E) 1,103 4.1 -28.1°
Drops below altitude 10° 05:50:01 10° 100° (E) 1,393 4.7 -27.9°
Sets 05:52:15 0° 113° (ESE) 2,247 5.7 -27.4°
